EN

Hourly Weather Brzeznik

Today, 16 April, Friday

Time Temperature Precipitation Wind Pressure Humidity
00:00 0°C° 0.4 mm 3 mps 746 mmHg 98%
01:00 0°C° 0.4 mm 3 mps 746 mmHg 98%
02:00 0°C° 0.5 mm 3 mps 746 mmHg 98%
03:00 +1°C° 0.5 mm 2 mps 746 mmHg 98%
04:00 +1°C° 0.5 mm 2 mps 746 mmHg 99%
05:00 +1°C° 0.4 mm 2 mps 746 mmHg 99%
06:00 +1°C° 0.4 mm 2 mps 746 mmHg 99%
07:00 +1°C° 0.4 mm 2 mps 746 mmHg 99%
08:00 +1°C° 0.2 mm 2 mps 746 mmHg 99%
09:00 +1°C° 0.2 mm 2 mps 746 mmHg 99%
10:00 +1°C° 0.2 mm 2 mps 746 mmHg 99%
11:00 +2°C° 0.1 mm 2 mps 746 mmHg 97%
12:00 +3°C° 0.1 mm 2 mps 746 mmHg 94%
13:00 +3°C° 0.1 mm 2 mps 747 mmHg 92%
14:00 +4°C° 0 mm 2 mps 746 mmHg 91%
15:00 +4°C° 0 mm 2 mps 746 mmHg 91%
16:00 +5°C° 0 mm 2 mps 746 mmHg 90%
17:00 +4°C° 0 mm 2 mps 746 mmHg 91%
18:00 +4°C° 0 mm 2 mps 746 mmHg 92%
19:00 +4°C° 0 mm 2 mps 746 mmHg 94%
20:00 +3°C° 0 mm 2 mps 746 mmHg 94%
21:00 +3°C° 0 mm 2 mps 746 mmHg 95%
22:00 +2°C° 0 mm 2 mps 746 mmHg 95%
23:00 +2°C° 0 mm 2 mps 746 mmHg 96%

Tomorrow, 17 April, Saturday

Time Temperature Precipitation Wind Pressure Humidity
00:00 +2°C° 0 mm 2 mps 746 mmHg 96%
01:00 +2°C° 0 mm 2 mps 745 mmHg 97%
02:00 +2°C° 0.3 mm 2 mps 745 mmHg 98%
03:00 +2°C° 0.3 mm 2 mps 745 mmHg 98%
04:00 +2°C° 0.3 mm 2 mps 745 mmHg 98%
05:00 +2°C° 0.4 mm 2 mps 745 mmHg 98%
06:00 +2°C° 0.4 mm 2 mps 745 mmHg 98%
07:00 +2°C° 0.4 mm 2 mps 745 mmHg 98%
08:00 +2°C° 0.1 mm 2 mps 745 mmHg 98%
09:00 +2°C° 0.1 mm 2 mps 745 mmHg 98%
10:00 +2°C° 0.1 mm 2 mps 746 mmHg 98%
11:00 +3°C° 0.1 mm 2 mps 746 mmHg 98%
12:00 +3°C° 0.1 mm 2 mps 745 mmHg 97%
13:00 +4°C° 0.1 mm 2 mps 745 mmHg 97%
14:00 +4°C° 0.3 mm 2 mps 745 mmHg 97%
15:00 +4°C° 0.3 mm 2 mps 745 mmHg 97%
16:00 +4°C° 0.3 mm 2 mps 745 mmHg 98%
17:00 +3°C° 0.1 mm 2 mps 745 mmHg 98%
18:00 +3°C° 0.1 mm 2 mps 745 mmHg 98%
19:00 +3°C° 0.1 mm 2 mps 745 mmHg 99%
20:00 +3°C° 0.1 mm 2 mps 745 mmHg 99%
21:00 +3°C° 0.1 mm 2 mps 745 mmHg 99%
22:00 +3°C° 0.1 mm 2 mps 745 mmHg 99%
23:00 +3°C° 0 mm 2 mps 745 mmHg 99%

Day after tomorrow, 18 April, Sunday

Time Temperature Precipitation Wind Pressure Humidity
00:00 +3°C° 0 mm 2 mps 745 mmHg 99%
01:00 +4°C° 0 mm 1 mps 745 mmHg 99%
02:00 +5°C° 0.1 mm 1 mps 745 mmHg 99%
03:00 +5°C° 0.1 mm 1 mps 745 mmHg 99%
04:00 +5°C° 0.1 mm 1 mps 745 mmHg 99%
05:00 +5°C° 0.1 mm 1 mps 745 mmHg 99%
06:00 +5°C° 0.1 mm 1 mps 745 mmHg 98%
07:00 +6°C° 0.1 mm 1 mps 745 mmHg 98%
08:00 +7°C° 0 mm 1 mps 745 mmHg 94%
09:00 +8°C° 0 mm 1 mps 745 mmHg 90%
10:00 +7°C° 0 mm 2 mps 745 mmHg 87%
11:00 +8°C° 0 mm 2 mps 745 mmHg 83%
12:00 +9°C° 0 mm 2 mps 745 mmHg 79%
13:00 +10°C° 0 mm 3 mps 745 mmHg 75%
14:00 +10°C° 0 mm 3 mps 745 mmHg 75%
15:00 +10°C° 0 mm 3 mps 745 mmHg 76%
16:00 +10°C° 0 mm 3 mps 745 mmHg 76%
17:00 +9°C° 0 mm 2 mps 745 mmHg 80%
18:00 +8°C° 0 mm 2 mps 745 mmHg 83%
19:00 +8°C° 0 mm 1 mps 745 mmHg 87%
20:00 +7°C° 0 mm 1 mps 745 mmHg 87%
21:00 +7°C° 0 mm 1 mps 745 mmHg 88%
22:00 +7°C° 0 mm 1 mps 745 mmHg 89%
23:00 +7°C° 0.2 mm 1 mps 745 mmHg 90%

19 April, Monday

Time Temperature Precipitation Wind Pressure Humidity
00:00 +7°C° 0.2 mm 1 mps 745 mmHg 92%
01:00 +7°C° 0.2 mm 1 mps 744 mmHg 93%
02:00 +7°C° 0.1 mm 1 mps 744 mmHg 95%
03:00 +7°C° 0.1 mm 1 mps 744 mmHg 96%
04:00 +7°C° 0.1 mm 1 mps 744 mmHg 97%
05:00 +8°C° 0.1 mm 1 mps 744 mmHg 97%
06:00 +8°C° 0.1 mm 1 mps 744 mmHg 97%
07:00 +8°C° 0.1 mm 1 mps 744 mmHg 97%
08:00 +9°C° 0 mm 1 mps 744 mmHg 94%
09:00 +10°C° 0 mm 1 mps 744 mmHg 91%
10:00 +10°C° 0 mm 1 mps 744 mmHg 88%
11:00 +10°C° 0.1 mm 2 mps 744 mmHg 80%
12:00 +13°C° 0.1 mm 2 mps 743 mmHg 72%
13:00 +13°C° 0.1 mm 3 mps 743 mmHg 64%
14:00 +13°C° 0.1 mm 3 mps 743 mmHg 64%
15:00 +13°C° 0.1 mm 3 mps 743 mmHg 63%
16:00 +12°C° 0.1 mm 3 mps 742 mmHg 63%
17:00 +12°C° 0 mm 2 mps 742 mmHg 69%
18:00 +9°C° 0 mm 2 mps 742 mmHg 75%
19:00 +9°C° 0 mm 1 mps 742 mmHg 81%
20:00 +8°C° 0 mm 1 mps 742 mmHg 82%
21:00 +8°C° 0 mm 1 mps 742 mmHg 84%
22:00 +7°C° 0 mm 1 mps 742 mmHg 85%
23:00 +7°C° 0 mm 1 mps 742 mmHg 86%

20 April, Tuesday

Time Temperature Precipitation Wind Pressure Humidity
00:00 +7°C° 0 mm 1 mps 742 mmHg 87%
01:00 +6°C° 0 mm 1 mps 742 mmHg 87%
02:00 +6°C° 0 mm 1 mps 741 mmHg 88%
03:00 +6°C° 0 mm 1 mps 741 mmHg 88%
04:00 +6°C° 0 mm 1 mps 741 mmHg 89%
05:00 +7°C° 0 mm 1 mps 741 mmHg 86%
06:00 +8°C° 0 mm 1 mps 741 mmHg 84%
07:00 +8°C° 0 mm 0 mps 741 mmHg 81%
08:00 +10°C° 0.3 mm 1 mps 740 mmHg 77%
09:00 +11°C° 0.3 mm 1 mps 740 mmHg 72%
10:00 +12°C° 0.3 mm 1 mps 740 mmHg 68%
11:00 +12°C° 0.3 mm 1 mps 740 mmHg 66%
12:00 +13°C° 0.3 mm 2 mps 739 mmHg 63%
13:00 +13°C° 0.3 mm 2 mps 739 mmHg 61%
14:00 +13°C° 0.2 mm 2 mps 739 mmHg 62%
15:00 +13°C° 0.2 mm 2 mps 739 mmHg 62%
16:00 +13°C° 0.2 mm 2 mps 738 mmHg 62%
17:00 +12°C° 0.2 mm 1 mps 738 mmHg 67%
18:00 +10°C° 0.2 mm 1 mps 738 mmHg 72%
19:00 +9°C° 0.2 mm 1 mps 738 mmHg 77%
20:00 +9°C° 0 mm 1 mps 738 mmHg 79%
21:00 +8°C° 0 mm 1 mps 738 mmHg 81%
22:00 +7°C° 0 mm 1 mps 738 mmHg 83%
23:00 +7°C° 0 mm 1 mps 738 mmHg 85%

21 April, Wednesday

Time Temperature Precipitation Wind Pressure Humidity
00:00 +6°C° 0 mm 1 mps 738 mmHg 87%
01:00 +6°C° 0 mm 1 mps 738 mmHg 90%
02:00 +4°C° 0 mm 2 mps 738 mmHg 92%
03:00 +4°C° 0 mm 2 mps 738 mmHg 93%
04:00 +3°C° 0 mm 2 mps 739 mmHg 95%
05:00 +4°C° 0 mm 2 mps 739 mmHg 92%
06:00 +5°C° 0 mm 2 mps 739 mmHg 88%
07:00 +5°C° 0 mm 2 mps 739 mmHg 85%
08:00 +7°C° 0 mm 2 mps 740 mmHg 77%
09:00 +8°C° 0 mm 2 mps 740 mmHg 69%
10:00 +10°C° 0 mm 2 mps 740 mmHg 61%
11:00 +10°C° 0.1 mm 2 mps 740 mmHg 58%
12:00 +11°C° 0.1 mm 3 mps 740 mmHg 56%
13:00 +11°C° 0.1 mm 3 mps 740 mmHg 54%
14:00 +11°C° 0.1 mm 3 mps 740 mmHg 55%
15:00 +11°C° 0.1 mm 3 mps 739 mmHg 56%
16:00 +11°C° 0.1 mm 3 mps 739 mmHg 57%
17:00 +10°C° 0 mm 2 mps 739 mmHg 62%
18:00 +9°C° 0 mm 2 mps 740 mmHg 67%
19:00 +8°C° 0 mm 2 mps 740 mmHg 73%
20:00 +7°C° 0 mm 2 mps 740 mmHg 75%
21:00 +7°C° 0 mm 2 mps 740 mmHg 77%
22:00 +6°C° 0 mm 2 mps 740 mmHg 78%
23:00 +6°C° 0 mm 2 mps 740 mmHg 80%
Show more

We Need Your Consent

Meteoprog and our Service Providers may store and access personal data such as cookies, device identifiers or other similar technologies on your device and process such data to personalise content and ads, as well as provide social media features and to analyse the traffic.

  • Store and/or access information on your device

    Cookies, device identifiers or other information can be stored or accessed on your device for the purposes indicated above.

  • Personalised ads and content, ad and content measurement, audience insights, and products development

    Ads and content can be personalised based on a profile. More data can be added to better personalise ads and content. Ad and content performance can be measured. Insights about the audience who saw the ads and content can be derived. Such data can be used to develop or improve user’s experience, systems and software.

By clicking ‘I Agree’ you will allow the use of indicated cookies, device identifiers, web beacons or other similar technologies. Your settings can be changed in the browser on your device.

For certain purposes, legitimate interests may be relied on, rather than consent. You can read more about this in our Privacy and Cookie Policy.